Location: ??????????
(48.4699°N, 37.9573°E)
Time: 20:15:49
(UTC+00:00)

ATLAS 2AS CENTAUR R/B - Pass Details

Date: 20 January 2021
Orbit: 947 x 1265 km, 63.7° (Epoch: 13 February)

Event Time Altitude Azimuth Distance (km) Brightness Sun altitude
Rises 14:30:34 0° 227° (SW) 4,198 7.6 -4.1°
Reaches altitude 10° 14:33:22 10° 229° (SW) 3,244 6.8 -4.5°
Maximum altitude 14:41:17 73° 314° (NW) 1,315 3.3 -5.7°
Drops below altitude 10° 14:49:04 10° 40° (NE) 3,187 4.6 -6.9°
Enters shadow 14:50:37 - 41° (NE) 3,715 5.0 -7.1°
